Weather History for CWRN - October, 2012

Change the Weather History Date:

Wednesday, October 10, 2012

  Actual Average Record
Temperature  
Mean Temperature 55 °F -  
Max Temperature 57 °F - - ()
Min Temperature 53 °F - - ()
Degree Days  
Heating Degree Days 10    
Growing Degree Days 5 (Base 50)    
Moisture  
Dew Point -    
Average Humidity    
Maximum Humidity    
Minimum Humidity    
Precipitation  
Precipitation 0.00 in - - ()
Sea Level Pressure  
Sea Level Pressure 30.11 in    
Wind  
Wind Speed 12 mph ()    
Max Wind Speed 17 mph    
Max Gust Speed 26 mph    
T = Trace of Precipitation, MM = Missing Value Source: Averaged Metar Reports

Daily Weather History Graph

Daily Weather History Graph

Search for Another Location

Airport or City:

Trip Planner

Search our weather history database for the weather conditions in past years. The results will help you decide how hot, cold, wet, or windy it might be!

Date:

Astronomy

Oct. 10, 2012 Rise Set
Actual Time 7:14 AM ADT 6:26 PM ADT
Civil Twilight 6:44 AM ADT 6:56 PM ADT
Nautical Twilight 6:10 AM ADT 7:30 PM ADT
Astronomical Twilight 5:35 AM ADT 8:04 PM ADT
Moon 1:31 AM ADT (10/10) 3:39 PM ADT (10/10)
Length of Visible Light 12h 11m
Length of Day
11h 12m
Waning Crescent, 28% of the Moon is Illuminated
Oct 10
Waning Crescent
Oct 15
New
Oct 22
First Quarter
Oct 29
Full
Nov 6
Last Quarter

Hourly Weather History & Observations

Time (ADT) Temp. Dew Point Humidity Pressure Visibility Wind Dir Wind Speed Gust Speed Precip Events Conditions
12:00 AM 53.8 °F - N/A% 30.19 in - ENE 11.5 mph 19.6 mph N/A   Unknown
1:00 AM 54.7 °F - N/A% 30.18 in - East 12.7 mph 19.6 mph N/A   Unknown
2:00 AM 54.1 °F - N/A% 30.18 in - ENE 16.1 mph 23.0 mph N/A   Unknown
3:00 AM 54 °F - % 30.17 in - ENE 15.0 mph - -  
3:00 AM 54.3 °F - N/A% 30.17 in - ENE 15.0 mph 26.5 mph N/A   Unknown
4:00 AM 54.0 °F - N/A% 30.16 in - East 13.8 mph 19.6 mph N/A   Unknown
5:00 AM 54.5 °F - N/A% 30.15 in - East 15.0 mph 23.0 mph N/A   Unknown
6:00 AM 54.7 °F - N/A% 30.15 in - East 17.3 mph - N/A   Unknown
7:00 AM 54.7 °F - N/A% 30.15 in - East 15.0 mph 20.7 mph N/A   Unknown
8:00 AM 54.7 °F - N/A% 30.15 in - East 15.0 mph 21.9 mph N/A   Unknown
9:00 AM 55 °F - % 30.16 in - ENE 13.8 mph - -  
9:00 AM 54.9 °F - N/A% 30.16 in - ENE 13.8 mph - N/A   Unknown
10:00 AM 55.6 °F - N/A% 30.15 in - ENE 15.0 mph 24.2 mph N/A   Unknown
11:00 AM 55.8 °F - N/A% 30.16 in - ENE 13.8 mph 20.7 mph N/A   Unknown
12:00 PM 56.8 °F - N/A% 30.14 in - ENE 16.1 mph 21.9 mph N/A   Unknown
1:00 PM 56.7 °F - N/A% 30.12 in - East 13.8 mph 21.9 mph N/A   Unknown
2:00 PM 56.5 °F - N/A% 30.11 in - ENE 15.0 mph 21.9 mph N/A   Unknown
3:00 PM 57 °F - % 30.10 in - East 12.7 mph - -  
3:00 PM 56.8 °F - N/A% 30.10 in - East 12.7 mph 18.4 mph N/A   Unknown
4:00 PM 56.7 °F - N/A% 30.08 in - East 12.7 mph - N/A   Unknown
5:00 PM 56.1 °F - N/A% 30.06 in - East 11.5 mph - N/A   Unknown
6:00 PM 55.4 °F - N/A% 30.04 in - East 12.7 mph - N/A   Unknown
7:00 PM 55.9 °F - N/A% 30.02 in - East 11.5 mph - N/A   Unknown
8:00 PM 55.4 °F - N/A% 30.01 in - East 13.8 mph - N/A   Unknown
9:00 PM 56 °F - % 29.99 in - ESE 13.8 mph - -  
9:00 PM 55.9 °F - N/A% 29.99 in - ESE 13.8 mph - N/A   Unknown
10:00 PM 56.8 °F - N/A% 29.97 in - East 15.0 mph - N/A   Unknown
11:00 PM 57.7 °F - N/A% 29.95 in - ESE 15.0 mph - N/A   Unknown